Location: Newark
(25.6108°S, 54.5803°W)
Time: 10:24:18
(UTC+00:00)

Transit 2A - Pass Details

Date: 03 November 2020
Orbit: 595 x 964 km, 66.7° (Epoch: 28 November)

Event Time Altitude Azimuth Distance (km) Brightness Sun altitude
Rises 01:09:44 0° 208° (SSW) 3,269 10.1 -38.1°
Reaches altitude 10° 01:12:04 10° 211° (SSW) 2,391 9.2 -38.4°
Enters shadow 01:14:27 27° 218° (SW) 1,556 8.0 -38.8°
